NOAA 16 DEB, 41223

Orbit data source: Space-Track

NOAA 16 DEB, 41223 is space debris in SSO originally from a launch on Thu, 21 Sep 2000 UTC launched from the Air Force Western Test Range (AFWTR). Debris objects in space refer to the collection of defunct objects orbiting the Earth. Examples of debris include non-operational satellites, rocket bodies, and fragments generated from explosions, collisions, or faulty payload assembly.

Loading next visibility...
Identifier
41223, 2000-055EC
Orbit
SSO
Country
Flag of USUS
Related business
Manufacturer
Unknown
Mission
Spacecraft
Bus & Motor
Unknown
Mass
Unknown
Launch date (UTC)
2000-09-21 (25 years ago)
Launch vehicle
Unknown
Launch site
Air Force Western Test Range (AFWTR)
Object type
Payload
Rocket body
Debris
Shape & HBR
Unknown shape, 0.1 m
Radar Cross Section
Small (<0.1 m²)

Expand to show TLE details & history
Last TLE update: 12 hours ago

TLE from 12 hours ago
0 NOAA 16 DEB
1 41223U 00055EC  25290.93458933  .00003123  00000-0  16809-2 0  9999
2 41223  98.6532 291.1772 0031415 219.6467 140.2409 14.13271773505775
Epoch: 2025-10-17T22:25Z
TLE epoch observation values (Epoch: 2025-10-17T22:25:48.518Z)
Latitude
0.00001°
Longitude
-71.94779°
Altitude
868.588 km
Speed
7.409 km/s
True Right ascension
19h 24m 42s
True Declination
0° 00' 00"
Sunlit
Object was in daylight at epoch
Visualization orbit readout
Latitude
Unknown
Longitude
Unknown
Altitude
Unknown
Speed
Unknown
Apparent Right ascension
Unknown
Apparent Declination
Unknown
Sunlit
N/A
Visualization observer readout
Local Sidereal Time
05:18:47
Azimuth
Unknown
Elevation
Unknown
Doppler factor
Unknown
Orbital elements
Apogee altitude
868.055 km
Perigee altitude
822.67 km
Semi-major axis
7,223.499 km
Eccentricity
0.00314
Inclination
98.6532°
RAAN
291.1772°
Arg. of periapsis
219.6467°
True anomaly
140.47044°
Mean anomaly
140.2409°
Eccentric anomaly
140.35574°
Mean motion
3.53526 °/min
Orbital period
101.83 mins
BSTAR
0.0016809
Loading maneuver chart data...
Computing Atmospheric mass density...

Documentation

Showing up to 5 results
|